STARLINK-33874, 63825

Orbit data source: Space-Track

STARLINK-33874, 63825 is a payload satellite owned by SpaceX/Seattle (US) in LEO that was launched on Sun, 04 May 2025 UTC via an FALCON 9 launch vehicle from the Air Force Eastern Test Range (AFETR). Payload-class satellites include a variety of spacecraft equipped with specific instruments for various scientific and technological missions. These include communications satellites like Starlink; space stations such as the ISS; scientific satellites like the Hubble; Earth observation satellites from companies like Planet Labs, Umbra, and HawkEye 360; GPS; miniature CubeSats for education and research; and military/defense satellites.

Loading next visibility...
Identifier
63825, 2025-092X
Orbit
LEO
Country
Flag of USUS
Related business
Manufacturer
SpaceX/Seattle
Mission
Operational Commercial Communications
Bus & Motor
STARLINK V2MO, Unknown motor
Mass
575 kg wet, ~530 kg dry
Launch date (UTC)
2025-05-04 (1 year ago)
Launch vehicle
FALCON 9
Launch site
Air Force Eastern Test Range (AFETR)
Object type
Payload
Rocket body
Debris
Shape & HBR
Box + 1 Pan, 17.7 m
Radar Cross Section
41.120 m², Large (>1 m²)

Expand to show TLE details & history
Last TLE update: 19 hours ago

TLE from 19 hours ago
0 STARLINK-33874
1 63825U 25092X   26267.00517913  .00005080  00000-0  19393-3 0  9992
2 63825  43.0017 132.6322 0001214 272.8239  87.2474 15.27589386 78990
Epoch: 2026-09-24T00:07Z
TLE epoch observation values (Epoch: 2026-09-24T00:07:27.476Z)
Latitude
-0.00001°
Longitude
127.91954°
Altitude
482.757 km
Speed
7.626 km/s
True Right ascension
08h 50m 31s
True Declination
0° 00' 00"
Sunlit
Object was in daylight at epoch
Visualization orbit readout
Latitude
Unknown
Longitude
Unknown
Altitude
Unknown
Speed
Unknown
Apparent Right ascension
Unknown
Apparent Declination
Unknown
Sunlit
N/A
Visualization observer readout
Local Sidereal Time
11:53:58
Azimuth
Unknown
Elevation
Unknown
Doppler factor
Unknown
Orbital elements
Apogee altitude
485.799 km
Perigee altitude
484.133 km
Semi-major axis
6,863.103 km
Eccentricity
0.00012
Inclination
43.0017°
RAAN
132.6322°
Arg. of periapsis
272.8239°
True anomaly
87.2613°
Mean anomaly
87.2474°
Eccentric anomaly
87.25435°
Mean motion
3.81735 °/min
Orbital period
94.31 mins
BSTAR
0.00019393
Loading maneuver chart data...
Computing Atmospheric mass density...
Loading historical data...
Loading historical data...
Loading historical data...
Loading historical data...
Loading historical data...
Loading historical data...
Loading historical data...

Documentation

Showing up to 5 results
|